Regional Weather Roundup
Issued by NWS

Home | Current Version | Previous Version | Text Only | Print | Product List | Glossary Off
Versions: 1 2 3 4 5 6 7 8 9 10 11 12 13 14 15 16 17 18 19 20 21 22 23 24 25 26 27 28 29 30 31 32 33 34 35 36 37 38 39 40 41 42 43 44 45 46 47 48 49 50

000
ASUS43 KLSX 211307
RWRMO

WEATHER SUMMARY FOR MISSOURI
NATIONAL WEATHER SERVICE SPRINGFIELD MO
700 AM CST SUN DEC 21 2014

NOTE: "FAIR" INDICATES FEW OR NO CLOUDS BELOW 12,000 FEET WITH NO
       SIGNIFICANT WEATHER AND/OR OBSTRUCTIONS TO VISIBILITY.
       CURRENT SKY AND/OR WEATHER CONDITIONS ARE NOT AVAILABLE FOR
       CHILLICOTHE AND FARMINGTON.

MOZ001>031-035>038-043-044-053-054-211400-
...NORTHERN AND WESTERN MISSOURI...

CITY           SKY/WX    TMP DP  RH WIND       PRES   REMARKS
KANSAS CTY INT CLOUDY    38  35  89 S10       30.04S
KANSAS C DTWN  CLOUDY    39  36  89 S7        30.06S
LEE`S SUMMIT   CLOUDY    38  36  92 S7        30.06F FOG
ST JOSEPH      CLOUDY    37  34  89 S14       30.03F WCI  28
CHILLICOTHE      N/A     40  36  86 S7        30.09S
KIRKSVILLE     CLOUDY    38  36  92 SE9       30.10F

$$
MOZ066>068-077>081-088>096-101>105-211400-
...SOUTHWEST MISSOURI...

CITY           SKY/WX    TMP DP  RH WIND       PRES   REMARKS
SPRINGFIELD    CLOUDY    41  36  82 SE9       30.10S
JOPLIN         CLOUDY    42  40  92 S10       30.09S

$$
MOZ032>034-039>042-045>050-055>058-069>072-211400-
...CENTRAL MISSOURI...

CITY           SKY/WX    TMP DP  RH WIND       PRES   REMARKS
COLUMBIA       CLOUDY    41  36  82 S7        30.14S
JEFFERSON CITY CLOUDY    43  35  73 SE5       30.15F
ROLLA          CLOUDY    39  34  82 S7        30.14S
SEDALIA        CLOUDY    41  35  79 SE5       30.11F
WHITEMAN AFB   MOCLDY    40  37  87 S8        30.09
WARRENSBURG    CLOUDY    39  36  87 SE5       30.08F FOG
OSAGE BEACH    CLOUDY    41  34  75 S5        30.14R

$$
MOZ051-052-059>065-211400-
...EAST CENTRAL MISSOURI...

CITY           SKY/WX    TMP DP  RH WIND       PRES   REMARKS
ST LOUIS INTL  CLOUDY    41  32  70 SE8       30.21F
SPIRIT OF STL  CLOUDY    40  33  76 SE5       30.19F
ST CHARLES     CLOUDY    39  34  82 SE12      30.21S

$$
MOZ072>076-082>087-097>100-106>115-211400-
...SOUTH CENTRAL AND SOUTHEAST MISSOURI...

CITY           SKY/WX    TMP DP  RH WIND       PRES   REMARKS
CAPE GIRARDEAU MOCLDY    29  28  96 CALM      30.26R
FARMINGTON     CLOUDY    37  34  87 E6        30.21F
POPLAR BLUFF   CLOUDY    37  29  72 E3        30.23S
WEST PLAINS    CLOUDY    38  34  85 S8        30.17R

$$


USA.gov is the U.S. government's official web portal to all federal, state and local government web resources and services.